Powrót do katalogu

GOES 5 AKM

AktywnyMEO
NORAD 33521·ROCKET BODY·🇺🇸 United States

Wystrzelony May 22, 1981 z Cape Canaveral Space Force Station

Loading…

Następne Przeloty (najbliższe 24 godziny)

TLE

ŚwieżeSource: Space-Track

Epoka: Sep 14, 2026, 07:55 UTC

1 33521U 81049D   26257.33028868 -.00000220  00000-0  00000-0 0  9991
2 33521  16.1033 317.1062 1708346 145.8697 266.0391  0.82272744 59332

Śledź GOES 5 AKM w czasie rzeczywistym z AllMySat

Download on the App Store